COSMOS 1275 DEB, 13811

Orbit data source: Space-Track

COSMOS 1275 DEB, 13811 is space debris in LEO originally from a launch on Thu, 04 Jun 1981 UTC launched from the Plesetsk Missile And Space Complex (PKMTR). Debris objects in space refer to the collection of defunct objects orbiting the Earth. Examples of debris include non-operational satellites, rocket bodies, and fragments generated from explosions, collisions, or faulty payload assembly.

Loading next visibility...
Identifier
13811, 1981-053HF
Orbit
LEO
Country
Flag of CISCIS
Related business
Manufacturer
Unknown
Mission
Spacecraft
Bus & Motor
Unknown
Mass
Unknown
Launch date (UTC)
1981-06-04 (45 years ago)
Launch vehicle
Unknown
Launch site
Plesetsk Missile And Space Complex (PKMTR)
Object type
Payload
Rocket body
Debris
Shape & HBR
Unknown shape, 0.1 m
Radar Cross Section
Small (<0.1 m²)

Expand to show TLE details & history
Last TLE update: 10 hours ago

TLE from 10 hours ago
0 COSMOS 1275 DEB
1 13811U 81053HF  26045.23752642  .00002211  00000-0  11192-2 0  9991
2 13811  82.9377 325.2152 0011709 110.9895  41.2256 14.15695621197101
Epoch: 2026-02-14T05:42Z
TLE epoch observation values (Epoch: 2026-02-14T05:42:02.282Z)
Latitude
27.50866°
Longitude
-88.23725°
Altitude
837.001 km
Speed
7.44 km/s
True Right ascension
09h 26m 08s
True Declination
27° 22' 10"
Sunlit
Object was in full shadow at epoch
Visualization orbit readout
Latitude
Unknown
Longitude
Unknown
Altitude
Unknown
Speed
Unknown
Apparent Right ascension
Unknown
Apparent Declination
Unknown
Sunlit
N/A
Visualization observer readout
Local Sidereal Time
18:36:03
Azimuth
Unknown
Elevation
Unknown
Doppler factor
Unknown
Orbital elements
Apogee altitude
845.488 km
Perigee altitude
828.591 km
Semi-major axis
7,215.177 km
Eccentricity
0.00117
Inclination
82.9377°
RAAN
325.2152°
Arg. of periapsis
110.9895°
True anomaly
41.31412°
Mean anomaly
41.2256°
Eccentric anomaly
41.26985°
Mean motion
3.54138 °/min
Orbital period
101.66 mins
BSTAR
0.0011192
Loading maneuver chart data...
Computing Atmospheric mass density...

Documentation

Showing up to 5 results
|